Wind_Speed
48 49 45 38 30 28 26 25 25 24 25 26 27 27 26 25 23 25 25 24 26 26 24 24 26 27 29 30 26 25 27 29 32 35 32 30 38 44 46 46 45 45 48 51 51
51 49 40 36 31 29 26 26 26 26 26 25 26 25 25 26 26 27 29 28 28 25 25 26 27 24 23 24 24 25 25 20 19 20 27 33 39 42 45 49 49 47 48 48 50
48 46 39 36 32 30 28 27 26 26 24 25 26 26 27 26 26 29 29 30 28 27 26 28 27 25 25 26 29 30 31 24 20 17 19 23 34 43 46 49 47 46 44 46 45
45 40 39 36 35 32 29 29 29 28 27 26 26 26 27 28 28 27 32 30 29 30 28 28 28 29 30 30 33 34 34 27 24 23 25 27 31 41 47 51 49 49 48 49 52
44 43 41 39 36 36 34 33 31 31 31 30 28 28 27 27 28 27 29 31 30 29 29 27 27 29 32 35 37 38 33 31 32 30 30 30 30 32 34 43 52 50 53 53 55
46 47 46 43 39 39 39 38 38 35 34 33 31 31 29 27 29 30 29 28 30 30 29 28 28 28 31 35 38 38 34 36 35 32 34 36 36 36 36 37 39 38 43 48 53
52 52 50 47 44 42 42 42 42 42 40 38 35 34 34 30 29 31 30 27 28 28 29 31 31 30 33 34 35 35 35 37 37 35 35 35 38 39 40 42 43 41 42 41 40
57 56 54 51 50 47 47 46 46 45 45 42 40 36 37 33 32 31 33 31 29 29 31 33 33 32 34 37 37 36 34 36 37 34 34 36 35 38 39 39 41 40 42 41 40
61 59 57 55 54 54 53 51 50 50 49 47 44 40 38 36 33 33 35 34 31 31 32 33 33 33 34 35 36 38 38 34 31 32 32 34 36 38 38 38 35 33 34 30 19
62 60 59 58 58 58 57 57 56 54 52 51 50 47 45 41 38 36 37 36 35 34 34 33 33 33 34 35 36 37 32 27 29 29 30 30 31 32 33 28 25 26 22 20 25
63 63 63 61 60 59 59 60 60 59 56 55 53 50 48 45 42 38 36 39 40 37 36 36 36 33 30 31 33 36 32 28 28 27 25 23 25 30 23 19 22 23 23 28 30
62 61 62 61 61 61 61 60 60 60 56 58 57 52 49 50 46 43 39 38 42 40 39 41 39 32 31 31 32 34 36 35 30 27 24 24 26 25 21 22 25 25 28 31 33
57 58 58 59 60 60 60 60 61 63 61 59 59 56 51 52 49 46 44 41 41 44 43 44 40 39 36 33 34 32 35 35 29 22 22 26 28 27 24 25 30 28 28 33 36
53 53 55 56 58 58 58 58 59 62 61 59 57 57 53 56 53 50 49 47 47 43 42 49 44 42 40 39 35 37 36 31 31 26 28 28 27 27 27 27 24 27 31 34 36
46 46 51 52 53 52 53 55 58 58 57 57 57 57 55 58 56 54 53 52 52 48 45 47 48 45 45 44 40 43 38 37 36 33 31 33 31 33 31 33 31 30 36 38 35
41 41 41 44 48 51 52 50 51 53 56 56 56 56 57 57 56 56 56 56 53 51 51 52 49 49 50 47 48 49 43 42 40 39 35 38 35 37 38 38 38 39 44 43 40
45 43 43 43 42 41 44 48 50 50 48 49 53 56 58 57 57 58 58 59 59 55 55 55 52 51 51 51 52 54 48 46 46 44 43 43 40 40 43 43 43 44 47 46 46
45 45 45 46 45 45 42 41 42 44 46 47 48 49 50 55 57 57 58 60 61 59 59 58 58 55 55 56 56 55 53 52 50 50 50 47 43 44 46 47 48 49 51 51 51
33 37 46 49 49 47 45 43 43 43 42 44 45 45 47 50 53 56 57 59 60 62 61 61 62 61 60 60 59 57 55 56 52 52 51 50 49 50 51 52 52 53 53 53 51
38 36 36 42 49 52 50 46 45 43 42 44 47 47 47 49 50 55 57 57 58 61 64 65 63 67 66 65 65 63 61 61 60 56 54 52 49 48 49 51 51 50 52 53 51
36 33 36 41 42 49 52 52 50 47 46 44 47 49 51 54 53 53 54 56 58 59 61 64 67 71 70 67 69 69 68 67 66 62 57 54 50 53 53 52 52 52 54 56 55
42 44 42 43 45 42 52 53 55 55 54 51 50 50 52 54 55 56 56 56 58 59 60 60 60 63 72 73 70 74 73 69 66 61 63 60 51 53 55 55 54 55 55 56 57
46 47 48 47 46 47 44 54 56 56 58 58 58 57 57 57 55 55 57 57 58 60 62 63 61 59 65 74 74 76 73 72 70 66 61 58 54 55 53 54 56 56 54 54 58
53 50 49 48 51 51 49 46 55 58 61 63 63 63 62 61 61 59 59 58 58 60 62 65 64 64 64 72 74 76 77 76 72 69 67 59 58 57 56 55 54 53 51 53 56
57 54 52 49 53 54 51 44 53 58 61 62 62 62 62 63 64 64 62 61 63 62 62 62 62 67 68 69 75 73 74 77 76 69 67 65 62 58 57 55 54 53 53 54 53
53 56 58 55 55 53 53 52 47 54 57 59 62 64 66 66 66 67 67 66 65 68 69 66 60 62 64 71 74 76 72 71 75 73 71 71 65 61 58 56 56 57 55 54 52
60 57 55 57 60 57 57 57 51 54 55 58 60 63 65 65 65 65 64 66 67 67 73 68 64 64 57 67 71 70 74 74 73 72 74 71 66 64 62 59 58 56 55 55 53
Wind_Direction
295 293 291 292 281 288 287 291 296 289 282 282 278 271 269 271 268 260 257 260 263 269 263 258 262 263 257 243 244 246 249 245 247 248 243 233 243 239 242 245 244 245 248 243 244
286 290 285 282 277 283 292 291 295 291 285 285 278 273 272 266 265 260 254 255 257 262 260 258 259 259 247 242 247 252 258 257 251 251 247 233 250 243 244 246 245 250 254 254 247
285 289 281 276 272 279 290 292 292 289 290 289 286 279 274 267 265 257 254 253 257 260 261 260 255 251 248 250 256 257 259 259 250 249 247 242 255 244 249 252 253 253 250 250 248
285 280 279 276 274 276 286 289 292 293 291 293 290 285 279 270 262 260 253 255 262 262 262 261 257 253 253 253 257 259 261 260 249 243 246 244 252 248 248 254 257 258 261 260 253
279 279 277 277 277 276 281 287 290 290 289 292 292 288 286 271 263 259 258 256 258 262 260 265 260 258 254 254 254 259 262 257 252 247 246 245 249 255 256 257 256 258 260 264 267
275 278 277 276 275 275 279 281 283 283 285 286 288 287 285 277 265 258 256 258 257 261 258 261 259 257 255 254 255 258 259 257 256 253 250 249 249 251 256 258 260 262 262 262 266
272 274 275 274 274 273 275 279 281 281 279 280 281 282 281 279 272 260 257 258 257 256 255 256 259 259 259 257 257 256 256 258 260 257 257 256 256 258 259 261 263 264 266 270 271
273 270 272 272 273 274 274 277 278 279 278 277 278 279 277 276 273 263 255 255 255 256 258 259 258 262 263 263 258 254 253 254 257 260 259 257 258 259 259 259 259 261 265 270 274
271 269 268 268 271 272 272 273 274 276 276 277 276 276 275 271 267 266 257 252 253 256 256 259 260 263 265 264 261 257 251 252 257 256 255 256 253 254 256 259 264 266 264 266 279
269 268 268 266 267 268 269 270 271 272 273 273 273 273 274 273 269 266 262 255 250 253 255 258 260 261 264 264 262 262 261 255 253 251 251 251 252 257 259 261 253 248 250 238 232
269 270 270 268 267 267 268 269 269 269 270 270 271 272 274 273 269 266 261 260 253 251 254 254 256 259 268 264 261 259 257 249 244 245 245 246 244 247 250 239 245 241 241 239 243
271 271 271 268 268 267 267 267 266 266 267 271 272 271 269 268 268 265 260 253 251 250 251 253 255 259 259 260 260 256 254 250 239 238 236 234 239 238 239 248 247 248 246 252 250
270 269 269 269 268 266 266 266 266 266 267 267 269 267 266 266 263 262 259 254 250 247 249 252 251 252 253 255 255 256 255 253 246 217 215 226 236 242 242 250 255 248 250 260 261
274 274 273 271 270 268 265 263 263 264 265 264 264 262 260 260 259 258 258 254 248 246 247 251 250 250 253 254 252 253 251 249 243 217 218 229 241 248 250 253 253 248 257 265 269
278 277 275 272 269 268 268 266 264 262 261 261 258 257 254 256 257 255 254 254 254 250 243 246 244 246 247 248 250 251 248 244 241 234 232 235 240 252 256 261 261 263 269 269 275
281 282 281 278 272 269 267 265 263 262 262 259 257 255 253 250 252 252 252 251 251 251 248 248 245 245 247 248 248 249 245 243 239 238 241 246 245 251 255 259 265 267 271 278 284
279 279 278 279 279 277 271 266 263 262 260 258 258 256 254 253 250 251 250 249 249 247 247 250 248 244 246 247 246 248 246 244 242 239 241 246 247 253 262 267 269 269 271 274 276
278 278 278 278 278 277 276 275 271 266 262 262 262 259 258 253 250 250 251 249 248 247 247 248 248 243 244 245 246 249 248 244 242 244 245 248 249 253 259 263 265 266 269 271 274
297 289 277 274 273 274 275 275 272 269 266 263 261 260 256 255 254 249 246 247 248 247 246 246 246 244 242 243 245 245 247 247 244 246 247 252 253 254 258 261 264 268 271 274 276
300 293 297 289 273 269 270 272 269 269 267 264 262 259 258 256 253 254 252 249 248 247 247 246 244 247 244 243 244 243 242 243 243 243 245 248 252 254 256 261 264 266 269 272 274
300 305 311 322 294 269 263 265 264 264 265 264 263 261 258 255 253 252 253 254 254 251 247 245 245 249 246 245 246 245 243 242 243 241 242 245 250 254 255 257 260 265 268 271 273
299 308 310 316 321 287 264 261 262 262 262 262 261 262 263 262 260 256 252 253 253 254 253 249 244 244 251 246 245 247 246 245 245 248 246 243 247 253 255 256 259 261 265 271 273
296 301 307 312 314 317 283 260 259 260 261 261 264 263 263 262 262 263 260 256 254 253 254 253 249 244 248 250 246 246 247 247 246 243 245 246 246 248 252 256 258 261 265 269 271
297 297 302 306 311 314 313 280 265 262 261 262 262 262 262 262 263 263 264 265 262 256 252 250 250 246 242 250 248 245 245 246 245 245 243 245 245 249 250 252 257 261 264 267 271
297 298 302 304 305 307 311 299 272 266 264 263 263 263 262 261 262 263 263 266 267 263 257 250 246 245 243 243 248 247 245 246 245 244 245 242 242 244 249 252 254 257 260 264 270
304 303 299 301 303 301 308 307 282 271 269 266 264 262 262 264 265 266 268 267 265 262 260 256 249 246 243 241 241 246 244 244 245 244 243 243 241 243 245 247 252 255 259 263 268
298 304 299 299 302 301 304 305 292 276 272 270 268 266 263 262 260 260 260 258 260 260 262 260 256 250 243 243 240 241 245 241 241 239 241 241 241 241 242 243 246 252 258 262 266
Height
10865 10865 10865 10865 10863 10862 10860 10859 10858 10857 10858 10858 10858 10859 10858 10858 10858 10859 10859 10862 10862 10864 10865 10866 10866 10866 10864 10865 10867 10869 10871 10875 10878 10881 10885 10888 10880 10879 10880 10879 10885 10887 10889 10892 10893
10859 10859 10859 10859 10858 10857 10855 10854 10853 10853 10853 10853 10854 10853 10853 10853 10853 10854 10856 10857 10858 10860 10860 10860 10861 10861 10861 10862 10863 10865 10867 10871 10874 10876 10879 10883 10871 10874 10873 10871 10877 10880 10883 10885 10887
10852 10852 10853 10853 10853 10851 10850 10849 10849 10848 10848 10848 10848 10848 10848 10848 10848 10849 10850 10851 10853 10855 10856 10855 10857 10858 10859 10859 10859 10860 10862 10868 10870 10873 10873 10873 10863 10868 10867 10865 10871 10874 10877 10877 10882
10845 10845 10846 10846 10846 10845 10844 10844 10843 10843 10843 10843 10844 10843 10843 10843 10843 10844 10845 10846 10848 10850 10850 10850 10852 10854 10855 10855 10854 10854 10858 10863 10865 10866 10864 10863 10860 10863 10863 10863 10867 10870 10872 10873 10876
10837 10839 10839 10838 10838 10838 10837 10838 10837 10837 10837 10836 10837 10837 10838 10838 10837 10838 10839 10840 10842 10844 10845 10846 10847 10848 10848 10848 10847 10848 10853 10856 10855 10858 10859 10858 10858 10858 10859 10861 10862 10865 10865 10866 10867
10829 10831 10831 10830 10830 10830 10829 10829 10830 10830 10830 10830 10831 10831 10833 10833 10832 10832 10833 10834 10836 10838 10840 10839 10840 10841 10840 10841 10841 10843 10847 10847 10849 10852 10853 10853 10853 10854 10855 10856 10856 10857 10857 10859 10858
10820 10821 10822 10822 10822 10822 10822 10821 10821 10821 10822 10824 10825 10825 10827 10827 10826 10825 10827 10828 10829 10832 10833 10832 10833 10834 10834 10835 10835 10837 10840 10840 10841 10845 10847 10848 10848 10849 10850 10851 10851 10852 10851 10852 10853
10810 10811 10812 10812 10813 10813 10813 10812 10812 10813 10813 10815 10817 10818 10819 10820 10819 10819 10820 10821 10824 10826 10826 10826 10826 10827 10828 10828 10829 10831 10834 10834 10835 10839 10840 10840 10842 10841 10842 10843 10842 10844 10845 10847 10848
10799 10800 10801 10802 10802 10802 10802 10802 10803 10803 10804 10807 10808 10809 10810 10812 10812 10813 10813 10815 10818 10819 10819 10819 10820 10820 10821 10821 10821 10823 10825 10828 10830 10832 10833 10832 10834 10833 10833 10835 10839 10839 10838 10838 10839
10785 10786 10787 10789 10791 10790 10790 10791 10791 10791 10794 10796 10798 10800 10800 10805 10806 10806 10805 10809 10810 10812 10812 10812 10812 10813 10815 10815 10815 10816 10820 10822 10823 10824 10824 10825 10828 10827 10828 10832 10832 10831 10832 10832 10831
10772 10772 10772 10775 10777 10777 10778 10779 10779 10779 10784 10784 10787 10792 10792 10793 10797 10800 10799 10801 10802 10803 10805 10804 10804 10807 10810 10809 10809 10809 10811 10814 10815 10817 10819 10819 10821 10821 10825 10824 10824 10825 10826 10824 10825
10757 10758 10757 10760 10761 10763 10763 10765 10765 10765 10773 10773 10775 10782 10780 10779 10786 10788 10791 10791 10793 10795 10795 10794 10797 10802 10801 10802 10803 10802 10803 10804 10810 10813 10815 10815 10814 10816 10819 10819 10818 10819 10820 10820 10820
10741 10742 10743 10742 10744 10748 10749 10751 10751 10751 10758 10762 10762 10767 10769 10767 10774 10776 10778 10781 10781 10784 10786 10785 10790 10792 10794 10795 10797 10797 10795 10797 10803 10810 10812 10811 10811 10811 10813 10812 10812 10813 10814 10814 10814
10727 10729 10729 10728 10729 10732 10734 10735 10735 10736 10743 10747 10750 10750 10756 10752 10758 10763 10764 10766 10766 10772 10776 10773 10782 10785 10787 10787 10791 10790 10790 10794 10795 10801 10803 10805 10807 10808 10807 10806 10806 10807 10807 10807 10808
10714 10716 10713 10715 10714 10716 10718 10720 10721 10723 10728 10730 10733 10736 10741 10738 10742 10748 10751 10752 10754 10762 10762 10762 10770 10774 10775 10778 10782 10778 10786 10788 10789 10794 10797 10797 10799 10798 10800 10798 10800 10801 10798 10798 10801
10704 10704 10702 10701 10701 10702 10703 10705 10706 10709 10712 10714 10715 10718 10723 10726 10728 10732 10734 10737 10743 10748 10750 10750 10760 10765 10762 10769 10769 10768 10775 10779 10783 10787 10791 10788 10794 10792 10792 10793 10792 10792 10788 10788 10790
10694 10694 10692 10690 10690 10689 10689 10691 10692 10695 10697 10696 10699 10703 10707 10711 10715 10715 10719 10722 10726 10733 10736 10738 10745 10751 10751 10755 10754 10757 10765 10770 10773 10776 10779 10779 10786 10786 10783 10783 10783 10782 10780 10781 10781
10683 10682 10680 10678 10678 10677 10678 10678 10678 10680 10682 10685 10686 10690 10691 10693 10697 10701 10703 10705 10711 10718 10721 10724 10727 10733 10736 10738 10742 10747 10753 10758 10763 10765 10767 10772 10777 10777 10774 10773 10772 10772 10770 10770 10771
10673 10671 10668 10665 10664 10664 10666 10666 10666 10667 10669 10670 10672 10675 10676 10676 10679 10682 10686 10690 10694 10699 10705 10709 10711 10716 10720 10723 10727 10734 10738 10742 10750 10754 10757 10760 10764 10766 10763 10759 10758 10758 10758 10760 10760
10664 10661 10657 10653 10651 10651 10652 10654 10654 10656 10658 10657 10657 10660 10662 10661 10664 10665 10668 10675 10678 10683 10688 10692 10698 10696 10703 10708 10710 10717 10721 10724 10730 10738 10744 10749 10753 10753 10750 10749 10748 10748 10746 10746 10749
10653 10650 10646 10642 10637 10636 10637 10640 10642 10643 10643 10645 10643 10644 10644 10646 10650 10653 10656 10659 10662 10666 10672 10677 10682 10677 10684 10694 10696 10698 10703 10706 10712 10725 10733 10738 10743 10739 10740 10740 10739 10739 10737 10735 10736
10642 10639 10635 10631 10627 10622 10622 10626 10627 10629 10627 10630 10630 10630 10629 10630 10633 10638 10643 10645 10647 10650 10653 10660 10669 10671 10663 10672 10682 10680 10688 10697 10705 10715 10720 10725 10730 10726 10728 10729 10728 10727 10727 10726 10723
10630 10627 10622 10620 10616 10611 10609 10611 10612 10613 10613 10614 10615 10615 10613 10615 10618 10620 10624 10629 10633 10635 10638 10642 10651 10658 10654 10649 10663 10665 10673 10679 10688 10696 10705 10710 10716 10713 10715 10716 10715 10716 10718 10716 10708
10616 10616 10611 10607 10603 10599 10595 10595 10594 10596 10596 10597 10599 10599 10600 10600 10602 10606 10607 10609 10613 10616 10618 10620 10629 10636 10641 10632 10638 10647 10655 10660 10669 10681 10688 10700 10701 10703 10703 10704 10706 10706 10706 10703 10700
10599 10597 10597 10596 10592 10588 10584 10581 10577 10577 10579 10579 10581 10582 10583 10584 10585 10586 10590 10592 10590 10592 10595 10600 10608 10611 10619 10622 10617 10630 10639 10643 10655 10668 10676 10680 10685 10690 10693 10695 10694 10695 10695 10694 10695
10586 10581 10579 10578 10578 10576 10571 10568 10563 10560 10559 10562 10562 10563 10564 10567 10567 10566 10570 10572 10571 10570 10571 10577 10588 10590 10600 10601 10604 10606 10621 10630 10637 10651 10659 10664 10673 10675 10679 10683 10684 10684 10685 10686 10687
10570 10567 10564 10561 10558 10557 10555 10553 10548 10544 10544 10542 10542 10543 10544 10548 10549 10548 10549 10551 10553 10553 10548 10557 10563 10568 10583 10579 10587 10604 10601 10606 10613 10623 10633 10651 10660 10660 10663 10669 10671 10674 10674 10674 10676